Weather History for Burlington, IA

Change the Weather History Date:

Thursday, April 11, 2013

  Actual Average Record
Temperature  
Mean Temperature 43 °F 52 °F  
Max Temperature 48 °F 63 °F 91 °F (1930)
Min Temperature 37 °F 41 °F 22 °F (1973)
Degree Days  
Heating Degree Days 22 13  
Month to date heating degree days 178 165  
Since 1 July heating degree days 5504 5271  
Cooling Degree Days 0 1  
Month to date cooling degree days 0 1  
Year to date cooling degree days 0 3  
Moisture  
Dew Point 40 °F    
Average Humidity 84    
Maximum Humidity 92    
Minimum Humidity 76    
Precipitation  
Precipitation 0.05 in 0.12 in 0.86 in (1951)
Month to date precipitation 1.87 1.17  
Year to date precipitation 7.79 6.82  
Sea Level Pressure  
Sea Level Pressure 29.64 in    
Wind  
Wind Speed 10 mph (WSW)    
Max Wind Speed 25 mph    
Max Gust Speed 29 mph    
Visibility 7 miles    
Events Rain    
T = Trace of Precipitation, MM = Missing Value Source: NWS Daily Summary

Daily Weather History Graph

Daily Weather History Graph

Search for Another Location

Airport:

Trip Planner

Search our weather history database for the weather conditions in past years. The results will help you decide how hot, cold, wet, or windy it might be!

Date:

Astronomy

Apr. 11, 2013 Rise Set
Actual Time 6:31 AM CDT 7:40 PM CDT
Civil Twilight 6:03 AM CDT 8:08 PM CDT
Nautical Twilight 5:29 AM CDT 8:42 PM CDT
Astronomical Twilight 4:54 AM CDT 9:17 PM CDT
Moon 7:02 AM CDT (4/11) 9:15 PM CDT (4/11)
Length of Visible Light 14h 05m
Length of Day
13h 08m
New Moon, 2% of the Moon is Illuminated
Apr 11
New Moon
Apr 18
First Quarter
Apr 25
Full
May 2
Last Quarter
May 9
New

Hourly Weather History & Observations

Time (CDT) Temp. Windchill Dew Point Humidity Pressure Visibility Wind Dir Wind Speed Gust Speed Precip Events Conditions
12:53 AM 44.1 °F 39.0 °F 43.0 °F 96% 29.67 in 10.0 mi NE 9.2 mph - N/A   Overcast
1:53 AM 43.0 °F 39.5 °F 42.1 °F 97% 29.66 in 2.5 mi ENE 5.8 mph - 0.00 in Rain Light Rain
2:39 AM 44.6 °F 41.4 °F 42.8 °F 93% 29.64 in 1.8 mi ENE 5.8 mph - 0.03 in Rain Light Rain
2:46 AM 44.6 °F 42.2 °F 42.8 °F 93% 29.63 in 2.0 mi ENE 4.6 mph - 0.03 in   Overcast
2:53 AM 44.1 °F 42.5 °F 43.0 °F 96% 29.64 in 1.8 mi ENE 3.5 mph - 0.03 in   Overcast
3:19 AM 44.6 °F 43.1 °F 42.8 °F 93% 29.62 in 2.0 mi ENE 3.5 mph - N/A   Overcast
3:29 AM 44.6 °F 43.1 °F 42.8 °F 93% 29.62 in 1.8 mi NE 3.5 mph - N/A   Overcast
3:53 AM 44.1 °F 42.5 °F 43.0 °F 96% 29.62 in 1.5 mi NE 3.5 mph - 0.01 in Rain Light Rain
4:08 AM 44.6 °F - 44.6 °F 100% 29.61 in 2.0 mi Calm Calm - 0.00 in   Overcast
4:45 AM 44.6 °F - 42.8 °F 93% 29.62 in 3.0 mi Calm Calm - 0.01 in   Overcast
4:53 AM 44.1 °F 42.5 °F 44.1 °F 100% 29.63 in 3.0 mi West 3.5 mph - 0.01 in   Overcast
5:13 AM 44.6 °F 42.2 °F 42.8 °F 93% 29.62 in 2.5 mi West 4.6 mph - N/A   Overcast
5:25 AM 44.6 °F 42.2 °F 42.8 °F 93% 29.61 in 1.5 mi West 4.6 mph - N/A   Overcast
5:53 AM 44.1 °F 41.5 °F 43.0 °F 96% 29.63 in 1.0 mi WSW 4.6 mph - N/A   Mist
6:22 AM 44.6 °F 41.4 °F 42.8 °F 93% 29.62 in 2.5 mi SW 5.8 mph - N/A   Overcast
6:29 AM 44.6 °F 40.2 °F 42.8 °F 93% 29.63 in 5.0 mi WSW 8.1 mph - N/A   Overcast
6:53 AM 44.1 °F 38.6 °F 43.0 °F 96% 29.66 in 7.0 mi WSW 10.4 mph - N/A   Overcast
7:53 AM 44.1 °F 39.0 °F 42.1 °F 93% 29.65 in 10.0 mi West 9.2 mph - N/A   Overcast
8:40 AM 44.6 °F 40.7 °F 42.8 °F 93% 29.62 in 10.0 mi West 6.9 mph - N/A   Overcast
8:53 AM 44.1 °F 39.5 °F 43.0 °F 96% 29.63 in 10.0 mi WSW 8.1 mph - N/A   Overcast
9:32 AM 46.4 °F 41.1 °F 42.8 °F 87% 29.64 in 10.0 mi WSW 11.5 mph - N/A   Overcast
9:53 AM 46.4 °F 41.5 °F 42.8 °F 87% 29.62 in 10.0 mi WSW 10.4 mph - N/A   Overcast
10:23 AM 48.2 °F - 42.8 °F 82% 29.62 in 10.0 mi WSW 10.4 mph - N/A   Overcast
10:53 AM 48.0 °F - 42.1 °F 80% 29.64 in 10.0 mi West 9.2 mph - N/A   Overcast
11:53 AM 46.4 °F 41.9 °F 42.8 °F 87% 29.61 in 10.0 mi SW 9.2 mph - N/A   Overcast
12:26 PM 46.4 °F 41.1 °F 42.8 °F 87% 29.62 in 4.0 mi SW 11.5 mph - N/A   Overcast
12:41 PM 46.4 °F 40.4 °F 42.8 °F 87% 29.62 in 10.0 mi WSW 13.8 mph - N/A   Overcast
12:53 PM 48.0 °F - 42.1 °F 80% 29.63 in 10.0 mi SW 15.0 mph - N/A   Overcast
1:53 PM 45.0 °F 37.6 °F 41.0 °F 86% 29.63 in 9.0 mi WSW 17.3 mph 24.2 mph N/A   Overcast
2:38 PM 44.6 °F 39.7 °F 39.2 °F 81% 29.62 in 10.0 mi SW 9.2 mph - 0.00 in   Overcast
2:53 PM 45.0 °F 38.2 °F 37.9 °F 76% 29.63 in 10.0 mi SW 15.0 mph - 0.00 in   Overcast
3:53 PM 42.1 °F 34.9 °F 37.0 °F 82% 29.65 in 10.0 mi WSW 13.8 mph - 0.00 in Rain Light Rain
4:43 PM 42.8 °F 35.8 °F 35.6 °F 76% 29.63 in 10.0 mi WSW 13.8 mph - 0.00 in   Overcast
4:53 PM 42.1 °F 34.9 °F 35.1 °F 76% 29.64 in 10.0 mi West 13.8 mph 23.0 mph 0.00 in Rain Light Rain
5:28 PM 41.0 °F 32.8 °F 35.6 °F 81% 29.63 in 10.0 mi SW 16.1 mph 20.7 mph 0.00 in   Overcast
5:36 PM 41.0 °F 33.5 °F 35.6 °F 81% 29.63 in 10.0 mi SW 13.8 mph - 0.00 in   Overcast
5:53 PM 41.0 °F 33.5 °F 34.0 °F 76% 29.64 in 10.0 mi WSW 13.8 mph 21.9 mph 0.00 in   Overcast
6:53 PM 39.9 °F 33.4 °F 33.1 °F 77% 29.66 in 10.0 mi WSW 10.4 mph - N/A   Overcast
7:53 PM 37.9 °F 28.2 °F 30.9 °F 76% 29.65 in 10.0 mi WSW 18.4 mph - N/A   Overcast
8:53 PM 37.9 °F 29.2 °F 30.0 °F 73% 29.66 in 10.0 mi WSW 15.0 mph - N/A   Overcast
9:53 PM 37.0 °F 29.3 °F 30.0 °F 76% 29.67 in 10.0 mi WSW 11.5 mph - N/A   Overcast
10:53 PM 37.0 °F 29.8 °F 30.0 °F 76% 29.67 in 10.0 mi WSW 10.4 mph - N/A   Overcast
11:50 PM 37.4 °F 31.4 °F 30.2 °F 75% 29.66 in 10.0 mi WSW 8.1 mph - N/A   Overcast
11:53 PM 37.0 °F 30.4 °F 30.0 °F 76% 29.67 in 10.0 mi WSW 9.2 mph - N/A   Overcast